Regional Weather Roundup
Issued by NWS

Home | Current Version | Previous Version | Graphics & Text | Print | Product List | Glossary On
Versions: 1 2 3 4 5 6 7 8 9 10 11 12 13 14 15 16 17 18 19 20 21 22 23 24 25 26 27
000
ASUS45 KBOU 191207
RWRCO

WEATHER ROUNDUP FOR COLORADO
NATIONAL WEATHER SERVICE DENVER/BOULDER CO
600 AM MDT TUE SEP 19 2017

NOTE: "FAIR" INDICATES FEW OR NO CLOUDS BELOW 12000 FEET WITH NO
SIGNIFICANT WEATHER AND/OR OBSTRUCTIONS TO VISIBILITY.

COZ001>005-013-030-031-191300-
...NORTHWEST COLORADO...

CITY           SKY/WX    TMP DP  RH WIND       PRES   REMARKS
CRAIG          FAIR      63  21  20 SW12G24   29.82F
HAYDEN         FAIR      59  22  24 CALM      29.87S
MEEKER         FAIR      59  24  26 S6        29.86S
RABBIT EARS PA FAIR      43  19  39 SW12G24   30.08F
STEAMBOAT SPGS FAIR      44  29  57 CALM      29.88R
WALDEN         FAIR      50  18  27 S14       29.93F
$$

COZ006>008-011-191300-
...WEST CENTRAL VALLEYS...

CITY           SKY/WX    TMP DP  RH WIND       PRES   REMARKS
GRAND JUNCTION FAIR      61  27  27 SE16      29.83S
MONTROSE       FAIR      56  27  32 SE7       29.97R
EAGLE          FAIR      63  21  20 SW25G33   29.91F
RIFLE          FAIR      66  21  18 CALM      29.85S
DELTA          FAIR      60  25  26 MISG      29.93R
NUCLA          FAIR      61  18  18 S7        30.01R
$$

COZ017>023-064>068-191300-
...SOUTHWEST COLORADO...

CITY           SKY/WX    TMP DP  RH WIND       PRES   REMARKS
DURANGO        FAIR      37  30  75 CALM      30.10S
CORTEZ         FAIR      40  28  62 E6        30.04R
PAGOSA SPRINGS FAIR      38  26  59 CALM      30.16R
TELLURIDE      FAIR      54   8  16 SE5G21    30.15F
WOLF CREEK PAS FAIR      32  18  55 SW23G33   30.32R WCI  19
$$

COZ009-010-012-014-032>034-037-058>063-191300-
...CENTRAL COLORADO...

CITY           SKY/WX    TMP DP  RH WIND       PRES   REMARKS
ASPEN          FAIR      52  22  30 SE14G22   29.97F
BUENA VISTA    FAIR      33  24  68 W5        30.02S WCI  29
COPPER MTN     FAIR      45   1  16 SW16G28   30.19F
BERTHOUD PASS  FAIR      36  30  80 W38G52    30.15R
COTTONWOOD PAS FAIR      50  14  23 NW5       30.10F
GUNNISON       FAIR      29  27  92 CALM      30.10S
KREMMLING      FAIR      63  18  17 W17G24    29.93S
LEADVILLE      FAIR      50   6  16 S18G28    30.07F
MONARCH PASS   FAIR      37  14  38 SW40G49   30.31F
SALIDA         FAIR      57  20  24 SW16G23   30.06F
SUNLIGHT       FAIR      39  19  45 SW18G36   30.13S
WILKERSON PASS FAIR      39  16  38 SW20G29   30.14F
$$

COZ069>075-191300-
...SAN LUIS VALLEY/SANGRE DE CRISTO MOUNTAINS...

CITY           SKY/WX    TMP DP  RH WIND       PRES   REMARKS
ALAMOSA        FAIR      47  23  38 S13       30.07F
DEL NORTE      FAIR      51  19  28 SW12G17   30.08F
LA VETA PASS   FAIR      46  16  29 S36G59    30.20F
SAGUACHE       FAIR      32  28  86 N9        30.09S WCI  24
$$

COZ035-036-038>040-191300-
...NORTHERN COLORADO FRONT RANGE...

CITY           SKY/WX    TMP DP  RH WIND       PRES   REMARKS
DENVER INTL AP MOCLDY    61  22  22 S13       29.75S
DMNS CITY PARK   N/A     60  27  28 SE8       29.74F
AURORA         MOCLDY    63  23  21 S13       29.77F
FRONT RANGE AP FAIR      64  23  20 S16       29.76F
ERIE MUNI ARPT FAIR      55  29  37 S7        29.78S
BOULDER MUN AP FAIR      54  28  37 NW3       29.73S
CENTENNIAL     FAIR      63  21  20 S17       29.79S
BROOMFIELD     FAIR      57  30  35 S8        29.77S
FORT COLLINS   FAIR      49  40  71 VRB3      29.73F
LONGMONT       FAIR      51  39  63 CALM      29.74F
$$

COZ041-046-047-076>085-087-088-191300-
...PIKES PEAK/PALMER DIVIDE AND SOUTHERN FOOTHILLS...

CITY           SKY/WX    TMP DP  RH WIND       PRES   REMARKS
COLO. SPRINGS  FAIR      63  22  20 S14G21    29.86F
A. F. ACADEMY  FAIR      53  22  29 W7        29.86F
SCHRIEVER AFB  FAIR      57  21  24 MISG      29.86F
CHEYENNE MTN   NOT AVBL
ELLICOTT       NOT AVBL
FALCON         FAIR      62  15  16 SW17G23   29.90F
FORT CARSON    FAIR      60  22  23 SW10      29.83F
LIMON            N/A    N/A N/A N/A MISG      29.79F
MONUMENT HILL  FAIR      54  21  28 W8        29.91S
CANON CITY     CLEAR     52  30  43 NE3       29.83S
WALSENBURG     FAIR      68  18  14 SW29G38   29.87F
TRINIDAD       FAIR      61  28  28 SW15      29.88F
$$

COZ042>045-048>051-090-091-191300-
...NORTHEAST COLORADO...

CITY           SKY/WX    TMP DP  RH WIND       PRES   REMARKS
GREELEY ARPT   FAIR      46  41  82 NW7       29.72S
AKRON          FAIR      63  32  31 SW15      29.71F
BURLINGTON     FAIR      50  48  93 S10       29.73F
WRAY           FAIR      57  50  77 S6        29.69F
YUMA           FAIR      52  32  46 S7        29.69S
STERLING       FAIR      46  45  93 SW6       29.67F
HOLYOKE        FAIR      54  50  87 S3        29.69F
FORT MORGAN    FAIR      55  38  53 CALM      29.71F
$$

COZ086-089-092>099-191300-
...SOUTHEAST COLORADO...

CITY           SKY/WX    TMP DP  RH WIND       PRES   REMARKS
PUEBLO         FAIR      48  30  49 CALM      29.78F
LA JUNTA       FAIR      61  30  31 SW14      29.76F
LAMAR          FAIR      46  39  76 CALM      29.74S
SPRINGFIELD    NOT AVBL
$$




USA.gov is the U.S. government's official web portal to all federal, state and local government web resources and services.